Year,Month,Day,Hour,Minute,Value (Times are PST for temperature in C)
2023,05,15,00,00,19.00
2023,05,15,00,01,18.90
2023,05,15,00,02,18.90
2023,05,15,00,03,18.90
2023,05,15,00,04,18.80
2023,05,15,00,05,18.80
2023,05,15,00,06,18.80
2023,05,15,00,07,18.80
2023,05,15,00,08,18.80
2023,05,15,00,09,18.80
2023,05,15,00,10,18.80
2023,05,15,00,11,18.80
2023,05,15,00,12,18.80
2023,05,15,00,13,18.80
2023,05,15,00,14,18.80
2023,05,15,00,15,18.80
2023,05,15,00,16,18.80
2023,05,15,00,17,18.70
2023,05,15,00,18,18.70
2023,05,15,00,19,18.70
2023,05,15,00,20,18.70
2023,05,15,00,21,18.70
2023,05,15,00,22,18.70
2023,05,15,00,23,18.60
2023,05,15,00,24,18.70
2023,05,15,00,25,18.60
2023,05,15,00,26,18.60
2023,05,15,00,27,18.60
2023,05,15,00,28,18.60
2023,05,15,00,29,18.70
2023,05,15,00,30,18.70
2023,05,15,00,31,18.80
2023,05,15,00,32,18.80
2023,05,15,00,33,18.90
2023,05,15,00,34,18.90
2023,05,15,00,35,18.90
2023,05,15,00,36,18.90
2023,05,15,00,37,18.90
2023,05,15,00,38,18.90
2023,05,15,00,39,19.00
2023,05,15,00,40,19.00
2023,05,15,00,41,19.10
2023,05,15,00,42,19.10
2023,05,15,00,43,19.10
2023,05,15,00,44,19.10
2023,05,15,00,45,19.10
2023,05,15,00,46,19.10
2023,05,15,00,47,19.00
2023,05,15,00,48,19.00
2023,05,15,00,49,19.00
2023,05,15,00,50,18.90
2023,05,15,00,51,18.90
2023,05,15,00,52,18.90
2023,05,15,00,53,18.80
2023,05,15,00,54,18.80
2023,05,15,00,55,18.80
2023,05,15,00,56,18.70
2023,05,15,00,57,18.60
2023,05,15,00,58,18.60
2023,05,15,00,59,18.50
2023,05,15,01,00,18.50
2023,05,15,01,01,18.50
2023,05,15,01,02,18.40
2023,05,15,01,03,18.40
2023,05,15,01,04,18.40
2023,05,15,01,05,18.30
2023,05,15,01,06,18.30
2023,05,15,01,07,18.30
2023,05,15,01,08,18.30
2023,05,15,01,09,18.30
2023,05,15,01,10,18.30
2023,05,15,01,11,18.30
2023,05,15,01,12,18.30
2023,05,15,01,13,18.30
2023,05,15,01,14,18.40
2023,05,15,01,15,18.40
2023,05,15,01,16,18.50
2023,05,15,01,17,18.50
2023,05,15,01,18,18.60
2023,05,15,01,19,18.70
2023,05,15,01,20,18.70
2023,05,15,01,21,18.70
2023,05,15,01,22,18.70
2023,05,15,01,23,18.80
2023,05,15,01,24,18.80
2023,05,15,01,25,18.80
2023,05,15,01,26,18.80
2023,05,15,01,27,18.90
2023,05,15,01,28,18.90
2023,05,15,01,29,18.90
2023,05,15,01,30,18.90
2023,05,15,01,31,18.90
2023,05,15,01,32,18.90
2023,05,15,01,33,18.90
2023,05,15,01,34,19.00
2023,05,15,01,35,19.00
2023,05,15,01,36,19.00
2023,05,15,01,37,19.00
2023,05,15,01,38,19.00
2023,05,15,01,39,19.00
2023,05,15,01,40,18.90
2023,05,15,01,41,18.90
2023,05,15,01,42,18.90
2023,05,15,01,43,18.90
2023,05,15,01,44,18.90
2023,05,15,01,45,18.80
2023,05,15,01,46,18.70
2023,05,15,01,47,18.60
2023,05,15,01,48,18.50
2023,05,15,01,49,18.40
2023,05,15,01,50,18.20
2023,05,15,01,51,18.10
2023,05,15,01,52,18.10
2023,05,15,01,53,18.00
2023,05,15,01,54,17.90
2023,05,15,01,55,17.80
2023,05,15,01,56,17.80
2023,05,15,01,57,17.70
2023,05,15,01,58,17.70
2023,05,15,01,59,17.60
2023,05,15,02,00,17.60
2023,05,15,02,01,17.60
2023,05,15,02,02,17.50
2023,05,15,02,03,17.50
2023,05,15,02,04,17.40
2023,05,15,02,05,17.40
2023,05,15,02,06,17.40
2023,05,15,02,07,17.30
2023,05,15,02,08,17.30
2023,05,15,02,09,17.30
2023,05,15,02,10,17.30
2023,05,15,02,11,17.20
2023,05,15,02,12,17.20
2023,05,15,02,13,17.20
2023,05,15,02,14,17.20
2023,05,15,02,15,17.10
2023,05,15,02,16,17.10
2023,05,15,02,17,17.10
2023,05,15,02,18,17.10
2023,05,15,02,19,17.00
2023,05,15,02,20,17.00
2023,05,15,02,21,16.90
2023,05,15,02,22,17.00
2023,05,15,02,23,16.90
2023,05,15,02,24,16.90
2023,05,15,02,25,16.90
2023,05,15,02,26,16.90
2023,05,15,02,27,16.90
2023,05,15,02,28,16.90
2023,05,15,02,29,16.80
2023,05,15,02,30,16.80
2023,05,15,02,31,16.80
2023,05,15,02,32,16.80
2023,05,15,02,33,16.80
2023,05,15,02,34,16.80
2023,05,15,02,35,16.80
2023,05,15,02,36,16.80
2023,05,15,02,37,16.80
2023,05,15,02,38,16.70
2023,05,15,02,39,16.70
2023,05,15,02,40,16.70
2023,05,15,02,41,16.60
2023,05,15,02,42,16.60
2023,05,15,02,43,16.60
2023,05,15,02,44,16.60
2023,05,15,02,45,16.60
2023,05,15,02,46,16.60
2023,05,15,02,47,16.60
2023,05,15,02,48,16.60
2023,05,15,02,49,16.70
2023,05,15,02,50,16.70
2023,05,15,02,51,16.70
2023,05,15,02,52,16.70
2023,05,15,02,53,16.70
2023,05,15,02,54,16.70
2023,05,15,02,55,16.70
2023,05,15,02,56,16.70
2023,05,15,02,57,16.60
2023,05,15,02,58,16.60
2023,05,15,02,59,16.60
2023,05,15,03,00,16.60
2023,05,15,03,01,16.60
2023,05,15,03,02,16.60
2023,05,15,03,03,16.60
2023,05,15,03,04,16.60
2023,05,15,03,05,16.60
2023,05,15,03,06,16.60
2023,05,15,03,07,16.60
2023,05,15,03,08,16.60
2023,05,15,03,09,16.60
2023,05,15,03,10,16.60
2023,05,15,03,11,16.60
2023,05,15,03,12,16.60
2023,05,15,03,13,16.50
2023,05,15,03,14,16.50
2023,05,15,03,15,16.50
2023,05,15,03,16,16.50
2023,05,15,03,17,16.40
2023,05,15,03,18,16.40
2023,05,15,03,19,16.40
2023,05,15,03,20,16.40
2023,05,15,03,21,16.40
2023,05,15,03,22,16.40
2023,05,15,03,23,16.40
2023,05,15,03,24,16.40
2023,05,15,03,25,16.50
2023,05,15,03,26,16.50
2023,05,15,03,27,16.60
2023,05,15,03,28,16.60
2023,05,15,03,29,16.60
2023,05,15,03,30,16.60
2023,05,15,03,31,16.60
2023,05,15,03,32,16.50
2023,05,15,03,33,16.50
2023,05,15,03,34,16.50
2023,05,15,03,35,16.50
2023,05,15,03,36,16.60
2023,05,15,03,37,16.60
2023,05,15,03,38,16.60
2023,05,15,03,39,16.60
2023,05,15,03,40,16.60
2023,05,15,03,41,16.60
2023,05,15,03,42,16.60
2023,05,15,03,43,16.60
2023,05,15,03,44,16.50
2023,05,15,03,45,16.50
2023,05,15,03,46,16.50
2023,05,15,03,47,16.50
2023,05,15,03,48,16.40
2023,05,15,03,49,16.50
2023,05,15,03,50,16.40
2023,05,15,03,51,16.50
2023,05,15,03,52,16.40
2023,05,15,03,53,16.40
2023,05,15,03,54,16.40
2023,05,15,03,55,16.40
2023,05,15,03,56,16.40
2023,05,15,03,57,16.30
2023,05,15,03,58,16.30
2023,05,15,03,59,16.30
2023,05,15,04,00,16.20
2023,05,15,04,01,16.30
2023,05,15,04,02,16.30
2023,05,15,04,03,16.30
2023,05,15,04,04,16.30
2023,05,15,04,05,16.30
2023,05,15,04,06,16.30
2023,05,15,04,07,16.30
2023,05,15,04,08,16.30
2023,05,15,04,09,16.30
2023,05,15,04,10,16.30
2023,05,15,04,11,16.30
2023,05,15,04,12,16.30
2023,05,15,04,13,16.30
2023,05,15,04,14,16.20
2023,05,15,04,15,16.20
2023,05,15,04,16,16.20
2023,05,15,04,17,16.20
2023,05,15,04,18,16.10
2023,05,15,04,19,16.10
2023,05,15,04,20,16.10
2023,05,15,04,21,16.10
2023,05,15,04,22,16.10
2023,05,15,04,23,16.00
2023,05,15,04,24,16.00
2023,05,15,04,25,16.00
2023,05,15,04,26,15.90
2023,05,15,04,27,15.90
2023,05,15,04,28,15.90
2023,05,15,04,29,15.90
2023,05,15,04,30,15.90
2023,05,15,04,31,15.90
2023,05,15,04,32,15.80
2023,05,15,04,33,15.80
2023,05,15,04,34,15.80
2023,05,15,04,35,15.80
2023,05,15,04,36,15.80
2023,05,15,04,37,15.80
2023,05,15,04,38,15.80
2023,05,15,04,39,15.80
2023,05,15,04,40,15.80
2023,05,15,04,41,15.80
2023,05,15,04,42,15.80
2023,05,15,04,43,15.80
2023,05,15,04,44,15.80
2023,05,15,04,45,15.80
2023,05,15,04,46,15.80
2023,05,15,04,47,15.80
2023,05,15,04,48,15.90
2023,05,15,04,49,15.90
2023,05,15,04,50,15.90
2023,05,15,04,51,15.90
2023,05,15,04,52,15.90
2023,05,15,04,53,16.00
2023,05,15,04,54,16.10
2023,05,15,04,55,16.20
2023,05,15,04,56,16.30
2023,05,15,04,57,16.50
2023,05,15,04,58,16.60
2023,05,15,04,59,16.70
2023,05,15,05,00,16.90
2023,05,15,05,01,17.00
2023,05,15,05,02,17.20
2023,05,15,05,03,17.30
2023,05,15,05,04,17.40
2023,05,15,05,05,17.50
2023,05,15,05,06,17.60
2023,05,15,05,07,17.70
2023,05,15,05,08,17.70
2023,05,15,05,09,17.70
2023,05,15,05,10,17.70
2023,05,15,05,11,17.70
2023,05,15,05,12,17.70
2023,05,15,05,13,17.70
2023,05,15,05,14,17.70
2023,05,15,05,15,17.60
2023,05,15,05,16,17.60
2023,05,15,05,17,17.60
2023,05,15,05,18,17.60
2023,05,15,05,19,17.60
2023,05,15,05,20,17.60
2023,05,15,05,21,17.50
2023,05,15,05,22,17.50
2023,05,15,05,23,17.50
2023,05,15,05,24,17.50
2023,05,15,05,25,17.50
2023,05,15,05,26,17.60
2023,05,15,05,27,17.60
2023,05,15,05,28,17.60
2023,05,15,05,29,17.60
2023,05,15,05,30,17.70
2023,05,15,05,31,17.70
2023,05,15,05,32,17.70
2023,05,15,05,33,17.70
2023,05,15,05,34,17.60
2023,05,15,05,35,17.60
2023,05,15,05,36,17.60
2023,05,15,05,37,17.50
2023,05,15,05,38,17.50
2023,05,15,05,39,17.40
2023,05,15,05,40,17.40
2023,05,15,05,41,17.40
2023,05,15,05,42,17.30
2023,05,15,05,43,17.30
2023,05,15,05,44,17.30
2023,05,15,05,45,17.20
2023,05,15,05,46,17.20
2023,05,15,05,47,17.10
2023,05,15,05,48,17.10
2023,05,15,05,49,17.10
2023,05,15,05,50,17.00
2023,05,15,05,51,17.00
2023,05,15,05,52,17.00
2023,05,15,05,53,17.00
2023,05,15,05,54,16.90
2023,05,15,05,55,16.90
2023,05,15,05,56,16.90
2023,05,15,05,57,16.80
2023,05,15,05,58,16.80
2023,05,15,05,59,16.80
2023,05,15,06,00,16.70
2023,05,15,06,01,16.70
2023,05,15,06,02,16.70
2023,05,15,06,03,16.70
2023,05,15,06,04,16.70
2023,05,15,06,05,16.70
2023,05,15,06,06,16.60
2023,05,15,06,07,16.60
2023,05,15,06,08,16.60
2023,05,15,06,09,16.60
2023,05,15,06,10,16.60
2023,05,15,06,11,16.50
2023,05,15,06,12,16.50
2023,05,15,06,13,16.40
2023,05,15,06,14,16.40
2023,05,15,06,15,16.40
2023,05,15,06,16,16.30
2023,05,15,06,17,16.30
2023,05,15,06,18,16.30
2023,05,15,06,19,16.20
2023,05,15,06,20,16.20
2023,05,15,06,21,16.10
2023,05,15,06,22,16.00
2023,05,15,06,23,16.00
2023,05,15,06,24,16.00
2023,05,15,06,25,15.90
2023,05,15,06,26,15.90
2023,05,15,06,27,15.90
2023,05,15,06,28,15.80
2023,05,15,06,29,15.80
2023,05,15,06,30,15.80
2023,05,15,06,31,15.80
2023,05,15,06,32,15.80
2023,05,15,06,33,15.70
2023,05,15,06,34,15.70
2023,05,15,06,35,15.70
2023,05,15,06,36,15.70
2023,05,15,06,37,15.70
2023,05,15,06,38,15.70
2023,05,15,06,39,15.70
2023,05,15,06,40,15.60
2023,05,15,06,41,15.60
2023,05,15,06,42,15.50
2023,05,15,06,43,15.50
2023,05,15,06,44,15.50
2023,05,15,06,45,15.50
2023,05,15,06,46,15.40
2023,05,15,06,47,15.40
2023,05,15,06,48,15.40
2023,05,15,06,49,15.40
2023,05,15,06,50,15.40
2023,05,15,06,51,15.40
2023,05,15,06,52,15.40
2023,05,15,06,53,15.40
2023,05,15,06,54,15.40
2023,05,15,06,55,15.40
2023,05,15,06,56,15.50
2023,05,15,06,57,15.50
2023,05,15,06,58,15.50
2023,05,15,06,59,15.50
2023,05,15,07,00,15.50
2023,05,15,07,01,15.50
2023,05,15,07,02,15.50
2023,05,15,07,03,15.60
2023,05,15,07,04,15.60
2023,05,15,07,05,15.60
2023,05,15,07,06,15.60
2023,05,15,07,07,15.60
2023,05,15,07,08,15.70
2023,05,15,07,09,15.70
2023,05,15,07,10,15.70
2023,05,15,07,11,15.80
2023,05,15,07,12,15.80
2023,05,15,07,13,15.90
2023,05,15,07,14,15.90
2023,05,15,07,15,16.00
2023,05,15,07,16,16.00
2023,05,15,07,17,16.10
2023,05,15,07,18,16.10
2023,05,15,07,19,16.20
2023,05,15,07,20,16.20
2023,05,15,07,21,16.30
2023,05,15,07,22,16.30
2023,05,15,07,23,16.30
2023,05,15,07,24,16.40
2023,05,15,07,25,16.40
2023,05,15,07,26,16.40
2023,05,15,07,27,16.50
2023,05,15,07,28,16.50
2023,05,15,07,29,16.60
2023,05,15,07,30,16.60
2023,05,15,07,31,16.70
2023,05,15,07,32,16.70
2023,05,15,07,33,16.70
2023,05,15,07,34,16.70
2023,05,15,07,35,16.70
2023,05,15,07,36,16.70
2023,05,15,07,37,16.70
2023,05,15,07,38,16.80
2023,05,15,07,39,16.90
2023,05,15,07,40,17.10
2023,05,15,07,41,17.50
2023,05,15,07,42,17.70
2023,05,15,07,43,17.90
2023,05,15,07,44,18.10
2023,05,15,07,45,18.30
2023,05,15,07,46,18.40
2023,05,15,07,47,18.50
2023,05,15,07,48,18.60
2023,05,15,07,49,18.70
2023,05,15,07,50,18.80
2023,05,15,07,51,18.80
2023,05,15,07,52,18.90
2023,05,15,07,53,19.00
2023,05,15,07,54,19.10
2023,05,15,07,55,19.20
2023,05,15,07,56,19.20
2023,05,15,07,57,19.30
2023,05,15,07,58,19.30
2023,05,15,07,59,19.40
2023,05,15,08,00,19.40
2023,05,15,08,01,19.40
2023,05,15,08,02,19.50
2023,05,15,08,03,19.50
2023,05,15,08,04,19.60
2023,05,15,08,05,19.60
2023,05,15,08,06,19.60
2023,05,15,08,07,19.60
2023,05,15,08,08,19.60
2023,05,15,08,09,19.50
2023,05,15,08,10,19.50
2023,05,15,08,11,19.40
2023,05,15,08,12,19.30
2023,05,15,08,13,19.10
2023,05,15,08,14,19.10
2023,05,15,08,15,19.00
2023,05,15,08,16,18.90
2023,05,15,08,17,18.90
2023,05,15,08,18,18.80
2023,05,15,08,19,18.70
2023,05,15,08,20,18.70
2023,05,15,08,21,18.80
2023,05,15,08,22,18.90
2023,05,15,08,23,19.00
2023,05,15,08,24,19.10
2023,05,15,08,25,19.10
2023,05,15,08,26,19.20
2023,05,15,08,27,19.30
2023,05,15,08,28,19.30
2023,05,15,08,29,19.30
2023,05,15,08,30,19.30
2023,05,15,08,31,19.40
2023,05,15,08,32,19.50
2023,05,15,08,33,19.60
2023,05,15,08,34,19.70
2023,05,15,08,35,19.80
2023,05,15,08,36,19.80
2023,05,15,08,37,19.90
2023,05,15,08,38,19.90
2023,05,15,08,39,19.90
2023,05,15,08,40,20.00
2023,05,15,08,41,20.00
2023,05,15,08,42,20.00
2023,05,15,08,43,20.00
2023,05,15,08,44,20.10
2023,05,15,08,45,20.10
2023,05,15,08,46,20.10
2023,05,15,08,47,20.10
2023,05,15,08,48,20.10
2023,05,15,08,49,20.10
2023,05,15,08,50,20.10
2023,05,15,08,51,20.10
2023,05,15,08,52,20.10
2023,05,15,08,53,20.10
2023,05,15,08,54,20.10
2023,05,15,08,55,20.10
2023,05,15,08,56,20.10
2023,05,15,08,57,20.10
2023,05,15,08,58,20.10
2023,05,15,08,59,20.10
2023,05,15,09,00,20.10
2023,05,15,09,01,20.10
2023,05,15,09,02,20.10
2023,05,15,09,03,20.10
2023,05,15,09,04,20.10
2023,05,15,09,05,20.10
2023,05,15,09,06,20.10
2023,05,15,09,07,20.10
2023,05,15,09,08,20.10
2023,05,15,09,09,20.10
2023,05,15,09,10,20.10
2023,05,15,09,11,20.20
2023,05,15,09,12,20.20
2023,05,15,09,13,20.10
2023,05,15,09,14,20.20
2023,05,15,09,15,20.20
2023,05,15,09,16,20.20
2023,05,15,09,17,20.20
2023,05,15,09,18,20.20
2023,05,15,09,19,20.20
2023,05,15,09,20,20.30
2023,05,15,09,21,20.30
2023,05,15,09,22,20.30
2023,05,15,09,23,20.30
2023,05,15,09,24,20.30
2023,05,15,09,25,20.30
2023,05,15,09,26,20.30
2023,05,15,09,27,20.30
2023,05,15,09,28,20.40
2023,05,15,09,29,20.40
2023,05,15,09,30,20.40
2023,05,15,09,31,20.50
2023,05,15,09,32,20.50
2023,05,15,09,33,20.50
2023,05,15,09,34,20.60
2023,05,15,09,35,20.60
2023,05,15,09,36,20.60
2023,05,15,09,37,20.70
2023,05,15,09,38,20.70
2023,05,15,09,39,20.60
2023,05,15,09,40,20.70
2023,05,15,09,41,20.60
2023,05,15,09,42,20.70
2023,05,15,09,43,20.70
2023,05,15,09,44,20.70
2023,05,15,09,45,20.70
2023,05,15,09,46,20.80
2023,05,15,09,47,20.80
2023,05,15,09,48,20.90
2023,05,15,09,49,20.90
2023,05,15,09,50,21.00
2023,05,15,09,51,21.00
2023,05,15,09,52,21.00
2023,05,15,09,53,21.00
2023,05,15,09,54,21.10
2023,05,15,09,55,21.10
2023,05,15,09,56,21.10
2023,05,15,09,57,21.10
2023,05,15,09,58,21.10
2023,05,15,09,59,21.10
2023,05,15,10,00,21.10
2023,05,15,10,01,21.20
2023,05,15,10,02,21.20
2023,05,15,10,03,21.20
2023,05,15,10,04,21.20
2023,05,15,10,05,21.30
2023,05,15,10,06,21.40
2023,05,15,10,07,21.40
2023,05,15,10,08,21.50
2023,05,15,10,09,21.50
2023,05,15,10,10,21.60
2023,05,15,10,11,21.70
2023,05,15,10,12,21.70
2023,05,15,10,13,21.70
2023,05,15,10,14,21.80
2023,05,15,10,15,21.80
2023,05,15,10,16,21.90
2023,05,15,10,17,21.90
2023,05,15,10,18,22.00
2023,05,15,10,19,22.10
2023,05,15,10,20,22.20
2023,05,15,10,21,22.30
2023,05,15,10,22,22.40
2023,05,15,10,23,22.50
2023,05,15,10,24,22.60
2023,05,15,10,25,22.80
2023,05,15,10,26,22.90
2023,05,15,10,27,23.00
2023,05,15,10,28,23.10
2023,05,15,10,29,23.30
2023,05,15,10,30,23.40
2023,05,15,10,31,23.50
2023,05,15,10,32,23.60
2023,05,15,10,33,23.60
2023,05,15,10,34,23.60
2023,05,15,10,35,23.60
2023,05,15,10,36,23.50
2023,05,15,10,37,23.60
2023,05,15,10,38,23.60
2023,05,15,10,39,23.60
2023,05,15,10,40,23.70
2023,05,15,10,41,23.70
2023,05,15,10,42,23.70
2023,05,15,10,43,23.70
2023,05,15,10,44,23.60
2023,05,15,10,45,23.60
2023,05,15,10,46,23.60
2023,05,15,10,47,23.60
2023,05,15,10,48,23.60
2023,05,15,10,49,23.70
2023,05,15,10,50,23.70
2023,05,15,10,51,23.70
2023,05,15,10,52,23.70
2023,05,15,10,53,23.80
2023,05,15,10,54,23.80
2023,05,15,10,55,23.90
2023,05,15,10,56,23.90
2023,05,15,10,57,23.90
2023,05,15,10,58,23.90
2023,05,15,10,59,23.90
2023,05,15,11,00,24.00
2023,05,15,11,01,24.00
2023,05,15,11,02,24.00
2023,05,15,11,03,23.90
2023,05,15,11,04,23.90
2023,05,15,11,05,23.90
2023,05,15,11,06,23.90
2023,05,15,11,07,24.00
2023,05,15,11,08,24.00
2023,05,15,11,09,24.10
2023,05,15,11,10,24.10
2023,05,15,11,11,24.10
2023,05,15,11,12,24.20
2023,05,15,11,13,24.20
2023,05,15,11,14,24.20
2023,05,15,11,15,24.20
2023,05,15,11,16,24.20
2023,05,15,11,17,24.20
2023,05,15,11,18,24.20
2023,05,15,11,19,24.30
2023,05,15,11,20,24.30
2023,05,15,11,21,24.40
2023,05,15,11,22,24.40
2023,05,15,11,23,24.50
2023,05,15,11,24,24.60
2023,05,15,11,25,24.60
2023,05,15,11,26,24.70
2023,05,15,11,27,24.70
2023,05,15,11,28,24.80
2023,05,15,11,29,24.80
2023,05,15,11,30,24.80
2023,05,15,11,31,24.80
2023,05,15,11,32,24.80
2023,05,15,11,33,24.80
2023,05,15,11,34,24.80
2023,05,15,11,35,24.80
2023,05,15,11,36,24.80
2023,05,15,11,37,24.90
2023,05,15,11,38,24.90
2023,05,15,11,39,24.90
2023,05,15,11,40,24.90
2023,05,15,11,41,25.00
2023,05,15,11,42,25.00
2023,05,15,11,43,25.00
2023,05,15,11,44,25.00
2023,05,15,11,45,25.10
2023,05,15,11,46,25.20
2023,05,15,11,47,25.20
2023,05,15,11,48,25.20
2023,05,15,11,49,25.30
2023,05,15,11,50,25.30
2023,05,15,11,51,25.40
2023,05,15,11,52,25.40
2023,05,15,11,53,25.40
2023,05,15,11,54,25.40
2023,05,15,11,55,25.40
2023,05,15,11,56,25.40
2023,05,15,11,57,25.40
2023,05,15,11,58,25.40
2023,05,15,11,59,25.40
2023,05,15,12,00,25.50
2023,05,15,12,01,25.50
2023,05,15,12,02,25.60
2023,05,15,12,03,25.60
2023,05,15,12,04,25.70
2023,05,15,12,05,25.80
2023,05,15,12,06,25.80
2023,05,15,12,07,25.80
2023,05,15,12,08,25.90
2023,05,15,12,09,25.90
2023,05,15,12,10,25.90
2023,05,15,12,11,25.90
2023,05,15,12,12,25.90
2023,05,15,12,13,25.90
2023,05,15,12,14,25.80
2023,05,15,12,15,25.80
2023,05,15,12,16,25.80
2023,05,15,12,17,25.80
2023,05,15,12,18,25.90
2023,05,15,12,19,25.90
2023,05,15,12,20,25.90
2023,05,15,12,21,26.00
2023,05,15,12,22,26.10
2023,05,15,12,23,26.20
2023,05,15,12,24,26.20
2023,05,15,12,25,26.30
2023,05,15,12,26,26.30
2023,05,15,12,27,26.30
2023,05,15,12,28,26.40
2023,05,15,12,29,26.40
2023,05,15,12,30,26.40
2023,05,15,12,31,26.40
2023,05,15,12,32,26.40
2023,05,15,12,33,26.40
2023,05,15,12,34,26.40
2023,05,15,12,35,26.40
2023,05,15,12,36,26.40
2023,05,15,12,37,26.40
2023,05,15,12,38,26.40
2023,05,15,12,39,26.40
2023,05,15,12,40,26.50
2023,05,15,12,41,26.50
2023,05,15,12,42,26.50
2023,05,15,12,43,26.50
2023,05,15,12,44,26.60
2023,05,15,12,45,26.50
2023,05,15,12,46,26.50
2023,05,15,12,47,26.50
2023,05,15,12,48,26.50
2023,05,15,12,49,26.50
2023,05,15,12,50,26.50
2023,05,15,12,51,26.60
2023,05,15,12,52,26.60
2023,05,15,12,53,26.60
2023,05,15,12,54,26.70
2023,05,15,12,55,26.70
2023,05,15,12,56,26.70
2023,05,15,12,57,26.80
2023,05,15,12,58,26.80
2023,05,15,12,59,26.90
2023,05,15,13,00,26.90
2023,05,15,13,01,26.90
2023,05,15,13,02,26.90
2023,05,15,13,03,26.90
2023,05,15,13,04,26.90
2023,05,15,13,05,26.90
2023,05,15,13,06,26.80
2023,05,15,13,07,26.80
2023,05,15,13,08,26.80
2023,05,15,13,09,26.80
2023,05,15,13,10,26.80
2023,05,15,13,11,26.70
2023,05,15,13,12,26.70
2023,05,15,13,13,26.70
2023,05,15,13,14,26.70
2023,05,15,13,15,26.80
2023,05,15,13,16,26.80
2023,05,15,13,17,26.80
2023,05,15,13,18,26.80
2023,05,15,13,19,26.90
2023,05,15,13,20,26.90
2023,05,15,13,21,26.90
2023,05,15,13,22,26.90
2023,05,15,13,23,26.90
2023,05,15,13,24,26.90
2023,05,15,13,25,26.90
2023,05,15,13,26,26.90
2023,05,15,13,27,26.90
2023,05,15,13,28,26.90
2023,05,15,13,29,26.90
2023,05,15,13,30,26.90
2023,05,15,13,31,26.80
2023,05,15,13,32,26.80
2023,05,15,13,33,26.80
2023,05,15,13,34,26.80
2023,05,15,13,35,26.80
2023,05,15,13,36,26.90
2023,05,15,13,37,27.00
2023,05,15,13,38,27.00
2023,05,15,13,39,27.10
2023,05,15,13,40,27.10
2023,05,15,13,41,27.20
2023,05,15,13,42,27.20
2023,05,15,13,43,27.30
2023,05,15,13,44,27.30
2023,05,15,13,45,27.30
2023,05,15,13,46,27.40
2023,05,15,13,47,27.40
2023,05,15,13,48,27.40
2023,05,15,13,49,27.50
2023,05,15,13,50,27.60
2023,05,15,13,51,27.60
2023,05,15,13,52,27.60
2023,05,15,13,53,27.60
2023,05,15,13,54,27.60
2023,05,15,13,55,27.60
2023,05,15,13,56,27.60
2023,05,15,13,57,27.70
2023,05,15,13,58,27.70
2023,05,15,13,59,27.80
2023,05,15,14,00,27.80
2023,05,15,14,01,27.80
2023,05,15,14,02,27.80
2023,05,15,14,03,27.80
2023,05,15,14,04,27.80
2023,05,15,14,05,27.90
2023,05,15,14,06,27.90
2023,05,15,14,07,27.90
2023,05,15,14,08,27.90
2023,05,15,14,09,27.90
2023,05,15,14,10,28.00
2023,05,15,14,11,28.00
2023,05,15,14,12,28.10
2023,05,15,14,13,28.10
2023,05,15,14,14,28.10
2023,05,15,14,15,28.10
2023,05,15,14,16,28.10
2023,05,15,14,17,28.10
2023,05,15,14,18,28.10
2023,05,15,14,19,28.10
2023,05,15,14,20,28.10
2023,05,15,14,21,28.10
2023,05,15,14,22,28.10
2023,05,15,14,23,28.10
2023,05,15,14,24,28.10
2023,05,15,14,25,28.20
2023,05,15,14,26,28.20
2023,05,15,14,27,28.20
2023,05,15,14,28,28.20
2023,05,15,14,29,28.20
2023,05,15,14,30,28.20
2023,05,15,14,31,28.20
2023,05,15,14,32,28.20
2023,05,15,14,33,28.20
2023,05,15,14,34,28.20
2023,05,15,14,35,28.20
2023,05,15,14,36,28.20
2023,05,15,14,37,28.30
2023,05,15,14,38,28.30
2023,05,15,14,39,28.30
2023,05,15,14,40,28.30
2023,05,15,14,41,28.20
2023,05,15,14,42,28.20
2023,05,15,14,43,28.30
2023,05,15,14,44,28.30
2023,05,15,14,45,28.30
2023,05,15,14,46,28.30
2023,05,15,14,47,28.40
2023,05,15,14,48,28.40
2023,05,15,14,49,28.50
2023,05,15,14,50,28.50
2023,05,15,14,51,28.60
2023,05,15,14,52,28.60
2023,05,15,14,53,28.70
2023,05,15,14,54,28.70
2023,05,15,14,55,28.70
2023,05,15,14,56,28.70
2023,05,15,14,57,28.60
2023,05,15,14,58,28.60
2023,05,15,14,59,28.50
2023,05,15,15,00,28.50
2023,05,15,15,01,28.40
2023,05,15,15,02,28.30
2023,05,15,15,03,28.30
2023,05,15,15,04,28.30
2023,05,15,15,05,28.40
2023,05,15,15,06,28.40
2023,05,15,15,07,28.40
2023,05,15,15,08,28.50
2023,05,15,15,09,28.40
2023,05,15,15,10,28.40
2023,05,15,15,11,28.30
2023,05,15,15,12,28.40
2023,05,15,15,13,28.40
2023,05,15,15,14,28.50
2023,05,15,15,15,28.60
2023,05,15,15,16,28.70
2023,05,15,15,17,28.70
2023,05,15,15,18,28.80
2023,05,15,15,19,28.80
2023,05,15,15,20,28.80
2023,05,15,15,21,28.80
2023,05,15,15,22,28.80
2023,05,15,15,23,28.80
2023,05,15,15,24,28.80
2023,05,15,15,25,28.80
2023,05,15,15,26,28.80
2023,05,15,15,27,28.80
2023,05,15,15,28,28.80
2023,05,15,15,29,28.80
2023,05,15,15,30,28.90
2023,05,15,15,31,28.90
2023,05,15,15,32,28.90
2023,05,15,15,33,29.00
2023,05,15,15,34,29.00
2023,05,15,15,35,29.10
2023,05,15,15,36,29.10
2023,05,15,15,37,29.20
2023,05,15,15,38,29.20
2023,05,15,15,39,29.20
2023,05,15,15,40,29.20
2023,05,15,15,41,29.20
2023,05,15,15,42,29.20
2023,05,15,15,43,29.20
2023,05,15,15,44,29.20
2023,05,15,15,45,29.20
2023,05,15,15,46,29.20
2023,05,15,15,47,29.20
2023,05,15,15,48,29.20
2023,05,15,15,49,29.30
2023,05,15,15,50,29.30
2023,05,15,15,51,29.30
2023,05,15,15,52,29.30
2023,05,15,15,53,29.30
2023,05,15,15,54,29.30
2023,05,15,15,55,29.30
2023,05,15,15,56,29.30
2023,05,15,15,57,29.40
2023,05,15,15,58,29.50
2023,05,15,15,59,29.60
2023,05,15,16,00,29.70
2023,05,15,16,01,29.70
2023,05,15,16,02,29.80
2023,05,15,16,03,29.80
2023,05,15,16,04,29.90
2023,05,15,16,05,29.90
2023,05,15,16,06,30.00
2023,05,15,16,07,30.00
2023,05,15,16,08,30.00
2023,05,15,16,09,30.10
2023,05,15,16,10,30.00
2023,05,15,16,11,30.00
2023,05,15,16,12,30.00
2023,05,15,16,13,30.00
2023,05,15,16,14,30.10
2023,05,15,16,15,30.10
2023,05,15,16,16,30.10
2023,05,15,16,17,30.10
2023,05,15,16,18,30.20
2023,05,15,16,19,30.20
2023,05,15,16,20,30.20
2023,05,15,16,21,30.10
2023,05,15,16,22,30.00
2023,05,15,16,23,30.00
2023,05,15,16,24,29.90
2023,05,15,16,25,29.80
2023,05,15,16,26,29.80
2023,05,15,16,27,29.80
2023,05,15,16,28,29.80
2023,05,15,16,29,29.80
2023,05,15,16,30,29.80
2023,05,15,16,31,29.80
2023,05,15,16,32,29.90
2023,05,15,16,33,29.90
2023,05,15,16,34,29.90
2023,05,15,16,35,30.00
2023,05,15,16,36,30.00
2023,05,15,16,37,30.10
2023,05,15,16,38,30.10
2023,05,15,16,39,30.20
2023,05,15,16,40,30.20
2023,05,15,16,41,30.30
2023,05,15,16,42,30.30
2023,05,15,16,43,30.40
2023,05,15,16,44,30.40
2023,05,15,16,45,30.50
2023,05,15,16,46,30.50
2023,05,15,16,47,30.50
2023,05,15,16,48,30.50
2023,05,15,16,49,30.50
2023,05,15,16,50,30.60
2023,05,15,16,51,30.60
2023,05,15,16,52,30.60
2023,05,15,16,53,30.60
2023,05,15,16,54,30.60
2023,05,15,16,55,30.60
2023,05,15,16,56,30.60
2023,05,15,16,57,30.60
2023,05,15,16,58,30.60
2023,05,15,16,59,30.60
2023,05,15,17,00,30.60
2023,05,15,17,01,30.70
2023,05,15,17,02,30.70
2023,05,15,17,03,30.70
2023,05,15,17,04,30.70
2023,05,15,17,05,30.70
2023,05,15,17,06,30.70
2023,05,15,17,07,30.70
2023,05,15,17,08,30.70
2023,05,15,17,09,30.70
2023,05,15,17,10,30.70
2023,05,15,17,11,30.70
2023,05,15,17,12,30.70
2023,05,15,17,13,30.70
2023,05,15,17,14,30.70
2023,05,15,17,15,30.70
2023,05,15,17,16,30.70
2023,05,15,17,17,30.70
2023,05,15,17,18,30.70
2023,05,15,17,19,30.70